TimeEDT,TemperatureF,Dew PointF,Humidity,Sea Level PressureIn,VisibilityMPH,Wind Direction,Wind SpeedMPH,Gust SpeedMPH,PrecipitationIn,Events,Conditions,WindDirDegrees,DateUTC
12:56 AM,44.1,39.9,85,30.22,10.0,East,8.1,-,N/A,,Partly Cloudy,90,2012-03-15 04:56:00
1:56 AM,43.0,39.9,89,30.24,10.0,East,4.6,-,N/A,,Scattered Clouds,90,2012-03-15 05:56:00
2:56 AM,43.0,41.0,93,30.24,8.0,East,5.8,-,N/A,,Scattered Clouds,100,2012-03-15 06:56:00
3:56 AM,43.0,41.0,93,30.24,7.0,East,3.5,-,N/A,,Scattered Clouds,100,2012-03-15 07:56:00
4:03 AM,42.8,41.0,93,30.23,8.0,East,5.8,-,N/A,,Overcast,100,2012-03-15 08:03:00
4:56 AM,42.1,39.9,92,30.26,8.0,East,6.9,-,N/A,,Mostly Cloudy,90,2012-03-15 08:56:00
5:56 AM,41.0,39.0,93,30.27,4.0,East,8.1,-,N/A,,Mist,80,2012-03-15 09:56:00
6:56 AM,41.0,39.9,96,30.29,7.0,ESE,4.6,-,N/A,,Overcast,110,2012-03-15 10:56:00
7:56 AM,41.0,39.0,93,30.31,8.0,ENE,8.1,-,N/A,,Overcast,70,2012-03-15 11:56:00
8:56 AM,41.0,39.0,93,30.31,5.0,ESE,6.9,-,N/A,,Overcast,110,2012-03-15 12:56:00
9:56 AM,42.1,37.9,85,30.32,7.0,ESE,9.2,-,N/A,,Overcast,120,2012-03-15 13:56:00
10:56 AM,42.1,37.9,85,30.34,10.0,SE,10.4,-,N/A,,Overcast,130,2012-03-15 14:56:00
11:56 AM,43.0,37.9,82,30.33,10.0,East,8.1,-,N/A,,Overcast,80,2012-03-15 15:56:00
12:56 PM,43.0,37.9,82,30.33,10.0,East,5.8,-,N/A,,Overcast,90,2012-03-15 16:56:00
1:56 PM,45.0,39.0,80,30.32,10.0,East,3.5,-,N/A,,Overcast,80,2012-03-15 17:56:00
2:29 PM,46.4,39.2,76,30.29,10.0,SSE,4.6,-,N/A,,Mostly Cloudy,150,2012-03-15 18:29:00
2:56 PM,46.9,39.9,77,30.29,10.0,ESE,5.8,-,N/A,,Mostly Cloudy,110,2012-03-15 18:56:00
3:56 PM,46.9,39.9,77,30.29,10.0,SSE,6.9,-,N/A,,Overcast,160,2012-03-15 19:56:00
4:56 PM,46.0,39.0,76,30.27,10.0,ESE,8.1,-,N/A,,Overcast,110,2012-03-15 20:56:00
5:56 PM,46.0,39.0,76,30.28,10.0,ESE,6.9,-,N/A,,Overcast,110,2012-03-15 21:56:00
6:56 PM,44.1,37.9,79,30.28,10.0,ESE,9.2,-,N/A,,Mostly Cloudy,120,2012-03-15 22:56:00
7:03 PM,44.6,39.2,81,30.27,10.0,ESE,8.1,-,N/A,,Overcast,110,2012-03-15 23:03:00
7:56 PM,44.1,37.9,79,30.30,10.0,ESE,4.6,-,N/A,,Overcast,110,2012-03-15 23:56:00
8:56 PM,43.0,37.9,82,30.32,10.0,East,8.1,-,N/A,,Overcast,100,2012-03-16 00:56:00
9:56 PM,42.1,39.0,89,30.32,6.0,ESE,6.9,-,N/A,,Overcast,120,2012-03-16 01:56:00
10:56 PM,41.0,39.0,93,30.31,5.0,East,5.8,-,N/A,,Mist,100,2012-03-16 02:56:00
11:56 PM,41.0,39.0,93,30.31,6.0,East,3.5,-,N/A,,Mist,100,2012-03-16 03:56:00